sat.trackr.live / text

‹ back to catalog

STAR ONE D2

NORAD 49055 · 2021-069A

PAYLOAD ACTIVE UNKNOWN

§ Identity

Operator
Country
BRAZ
Launch date
2021-07-30
Launch site
FRGUI
Launch vehicle
Mass (kg)
RCS (m²)

Purposes: comms

External: N2YO · Heavens-Above · Gunter

§ Orbital elements

Epoch: 2026-09-18T02:20:04.903872Z

Period
1,436.11 min
Inclination
0.0169°
Eccentricity
0.0002613
Mean motion
1.00270864 rev/d
Perigee alt
35,775.8 km
Apogee alt
35,797.9 km
Semi-major
42,165.0 km
B*
0.0000e+0
RAAN
141.2784°
Arg perigee
37.2015°
Mean anomaly
143.5777°
Rev number
1,888

§ Raw data

STAR ONE D21 49055U 21069A   26261.09727898 -.00000269  00000+0  00000+0 0  99942 49055   0.0169 141.2784 0002613  37.2015 143.5777  1.00270864 18885

JSON: /api/v1/satellites/49055 · /tle

For live sub-satellite position, see the globe view (requires WebGL).

§ Visibility from observer

Set your observer location to see the next 7 days of passes ≥ 10°. The values pass through the URL so the page stays shareable.

No JS? Fill the form by hand. The geolocation button needs JavaScript.